Other Public Products
Issued by NWS Grand Forks, ND

Home | Current Version | Previous Version | Graphics & Text | Print | Product List | Glossary On
Versions: 1 2 3 4 5 6 7 8 9 10 11 12 13 14 15 16 17 18 19 20 21 22 23 24 25 26 27 28 29 30 31 32 33 34 35 36 37 38 39 40 41 42 43 44 45 46 47 48 49 50
071
FPUS83 KFGF 260731
OPUFGF
PRAIRIE TO PINES WEATHER ROUNDUP
NATIONAL WEATHER SERVICE EASTERN NORTH DAKOTA/GRAND FORKS ND
200 AM CDT TUE SEP 26 2017

 **SATELLITE DATA USED TO AUGMENT SKY COVER AT AUTOMATED STATIONS**
 *****  WEATHER ACROSS EASTERN NORTH DAKOTA  *****

CITY           SKY/WX    TMP DP  RH WIND       PRES   REMARKS
GRAND FORKS    CLOUDY    51  49  92 N7        30.09R
GRAND FORKS AF CLOUDY    50  48  93 N9        30.09S
GRAND CITY NWS NOT AVBL
BUXTON           N/A     50  49  97 NW7         N/A
DEVILS LAKE    CLOUDY    46  43  89 N6        30.12S
FARGO          LGT RAIN  50  50 100 NW10      30.07S
WAHPETON ARPT  CLOUDY    50  46  87 N8        30.05S
$$

 *****  WEATHER ACROSS CENTRAL AND WESTERN NORTH DAKOTA  *****

CITY           SKY/WX    TMP DP  RH WIND       PRES   REMARKS
JAMESTOWN      RAIN      47  45  93 NW5       30.11R
BISMARCK       CLOUDY    47  45  93 NE3       30.13S
MINOT          CLOUDY    49  45  86 CALM      30.11F
MINOT AFB      CLOUDY    47  44  88 CALM      30.10F
GARRISON         N/A     45  44  97 SE6       30.11F
WILLISTON      CLOUDY    47  46  97 E3        30.11S
DICKINSON      CLOUDY    45  44  97 E3        30.08F
HETTINGER      LGT RAIN  44  42  93 SE5       30.12R
$$

 *****  OTHER OBSERVATIONS NORTHEAST NORTH DAKOTA  *****

CITY           SKY/WX    TMP DP  RH WIND       PRES   REMARKS
WALHALLA       FAIR     N/A N/A N/A VRB5      30.14R
LANGDON        PTSUNNY   43  43 100 N3        30.13S
CAVALIER       FAIR      48  46  93 NW5       30.12R
GRAFTON        PTSUNNY   48  48 100 N6        30.12F
CANDO          PTSUNNY   43  43 100 CALM      30.16R
FORT TOTTEN      N/A     47  43  85 NE2       29.95S
ROLLA          PTSUNNY   41  41 100 CALM      30.14F
RUGBY          CLOUDY    46  46 100 SE5       30.13R
 ***** THE ABOVE OBSERVATIONS ARE NON NWS ARE NOT QUALITY
        CONTROLLED AND MAY MIS-REPORT RAIN FOR SNOW...
$$

 *****  OTHER OBSERVATIONS SOUTHEAST NORTH DAKOTA *****

CITY           SKY/WX    TMP DP  RH WIND       PRES   REMARKS
COOPERSTOWN    FAIR      46  46 100 NE6       30.10R
VALLEY CITY    DRIZZLE   46  46 100 NE3       30.10S
OAKES          NOT AVBL
GWINNER        CLOUDY    48  48 100 N8        30.07F FOG
SHEYENNE NWR     N/A     50  50 100 N5        29.95S
BUFFALO          N/A     48  46  92 SW8         N/A
WYNDMERE       NOT AVBL
 ***** THE ABOVE OBSERVATIONS ARE NON NWS ARE NOT QUALITY
       CONTROLLED AND MAY MIS-REPORT RAIN FOR SNOW...
$$

  *****  WEATHER ACROSS NORTHERN MINNESOTA  *****

CITY           SKY/WX    TMP DP  RH WIND       PRES   REMARKS
FLAG ISLAND    CLOUDY    52  46  82 NE7       30.09S
WARROAD        CLOUDY    52  46  82 E8        30.09S
ROSEAU         LGT RAIN  50  45  81 NE6       30.09S
HALLOCK          N/A     50  48  93 N5        30.11R
THF RVR FALLS  CLOUDY    48  48 100 N8        30.08S
HALSTAD          N/A     50  48  93 N6          N/A
FOSSTON        LGT RAIN  48  46  93 N7        30.05F
BAUDETTE       MOCLDY    50  49  96 N7        30.08F
WASKISH        LGT RAIN  50  48  93 NE6       30.05F
CROOKSTON      DRIZZLE   50  48  93 N6        30.08F
$$
  *****  WEATHER ACROSS CENTRAL AND WEST MINNESOTA  *****

CITY           SKY/WX    TMP DP  RH WIND       PRES   REMARKS
BEMIDJI        LGT RAIN  49  49  98 N3        30.03F
PARK RAPIDS    LGT RAIN  52  49  89 N7        30.01S
WADENA         DRIZZLE   52  52 100 N7        30.00S
DETROIT LAKES  LGT RAIN  50  50 100 CALM      30.05R
MOORHEAD       LGT RAIN  50  48  93 N6        30.07S
FERGUS FALLS   LGT RAIN  52  52 100 NW7       30.04S
ELBOW LAKE     RAIN      52  52 100 W6        30.03S
MORRIS MN      NOT AVBL
STAPLES        NOT AVBL
WHEATON        LGT RAIN  50  48  93 NW10      30.06S
$$
  *****  WEATHER ELSEWHERE ACROSS MINNESOTA  *****

CITY           SKY/WX    TMP DP  RH WIND       PRES   REMARKS
DULUTH         LGT RAIN  55  55 100 E14G22    29.96F FOG
INTRNTL FALLS  CLOUDY    51  47  86 NE6       30.06S
ELY            DRIZZLE   52  52 100 NE6       30.01F
CLOQUET        HVY RAIN  55  54  94 N3        29.96S
BRAINERD       LGT RAIN  53  52  96 N7        29.98F FOG
HIBBING        LGT RAIN  52  51  97 N8        30.00S FOG
ALEXANDRIA     LGT RAIN  53  53 100 N7        30.01S FOG
SAINT CLOUD    LGT RAIN  55  55 100 N3        29.96S
MINNEAPOLIS    LGT RAIN  58  58 100 N5        29.93F
$$

  *****  WEATHER ACROSS SOUTH DAKOTA  *****

CITY           SKY/WX    TMP DP  RH WIND       PRES   REMARKS
SIOUX FALLS    LGT RAIN  52  52 100 NW12      30.02R FOG
BROOKINGS      LGT RAIN  49  48  97 NW9       30.03S FOG
WATERTOWN      CLOUDY    48  48 100 N9        30.02F
HURON          CLOUDY    49  48  97 MISG      30.06F
SISSETON         N/A     50  49  96 NW12      30.05S
ABERDEEN       LGT RAIN  48  48 100 NW9       30.07S
MITCHELL       CLOUDY    50  49  96 NW7       30.07S
PIERRE         MOCLDY    47  44  90 CALM      30.10R
MOBRIDGE       MOCLDY    46  43  89 CALM      30.09S
RAPID CITY     NOT AVBL
$$

  *****  SOME WEATHER IN NEARBY STATES *****

CITY           SKY/WX    TMP DP  RH WIND       PRES   REMARKS
GLASGOW MT     FAIR      40  38  93 E10       30.07S
GREAT FALLS MT CLOUDY    51  39  63 SW10      30.05S
CHEYENNE WY    CLOUDY    42  39  89 SW8       30.17R
SCOTTSBLUFF NE CLOUDY    43  40  89 E6        30.15R
OMAHA NE       LGT RAIN  59  55  87 NW7       29.97S
DES MOINES IA  CLOUDY    67  66  97 CALM      29.93F
DAVENPORT IA   FAIR      68  65  90 CALM      29.95S
CHICAGO IL     FAIR      73  57  57 S5        29.93S
EAU CLAIRE WI  CLOUDY    63  62  97 E3        29.92F
LA CROSSE WI   MOCLDY    68  67  96 E6        29.90S
$$

  *****  SOME NATIONAL WEATHER *****

CITY           SKY/WX    TMP DP  RH WIND       PRES   REMARKS
LA GUARDIA NY  CLOUDY    70  66  87 S6        30.04S
RALEIGH NC     MOCLDY    69  67  93 NE9       29.92F
ATLANTA GA     FAIR      73  61  65 N5        29.97F
NEW ORLEANS LA FAIR      78  74  87 E3        29.88S
OKLAHOMA CITY  CLOUDY    69  67  93 NE7       29.94R
ALBUQUERQUE NM FAIR      61  50  67 E21G30    30.00S
SALT LAKE CITY FAIR      47  38  71 SE6       30.12S
LOS ANGELES CA FAIR      67  57  70 E3        29.80S
BOISE ID       FAIR      56  38  50 SE9       30.09S
SEATTLE WA     CLOUDY    62  54  74 CALM      30.13S
$$

*** WEATHER ACROSS MANITOBA...SASKATCHEWAN AND ONTARIO ***
                ***ONTARIO***

CITY           SKY/WX    TMP DP  RH WIND       PRES   REMARKS
GERALDTON      LGT RAIN  48  46  93 NE7       30.08F
THUNDER BAY    CLOUDY    54  48  82 N5        30.03F
SIOUX LOOKOUT  CLOUDY    48  46  93 VRB3      30.11F
TORONTO        PTCLDY    73  64  73 NE3       30.00F
BIG TROUT LK   CLOUDY    37 N/A N/A N2        30.23S
PICKLE LAKE    NOT AVBL
DRYDEN         CLOUDY    48  46  93 NE7       30.10S
KENORA         CLOUDY    48  45  87 NE9       30.11S
$$
                *** MANITOBA***

CITY           SKY/WX    TMP DP  RH WIND       PRES   REMARKS
BRANDON        MOCLDY    41  39  93 NE5       30.16R
DAUPHIN        CLEAR     34  34 100 W3        30.14S FOG
ISLAND LAKE    NOT AVBL
PILOT MOUND      N/A     37  36  93 CALM        N/A
THE PAS        PTCLDY    43  41  93 SE9       30.09S
THOMPSON       PTCLDY    37  34  87 SE2       30.15F
WINNIPEG       MOCLDY    48  45  87 NE3       30.14R
LYNN LAKE      CLOUDY    46  41  81 S9        30.01F
CHURCHILL      CLEAR     34  28  80 S9        30.19S
GILLAM         CLEAR     30  27  86 S5        30.21S
$$
                ***SASKATCHEWAN***

CITY           SKY/WX    TMP DP  RH WIND       PRES   REMARKS
ESTEVAN        CLOUDY    46  43  87 S5        30.11S
KINDERSLEY     PTCLDY    50  32  50 W3        29.96F
LLOYDMINSTER   CLOUDY    50  41  71 SW8       29.92S
PRINCE ALBERT  MOCLDY    52  36  54 S13G20    30.02S
REGINA         PTCLDY    39  37  93 SE8       30.10R
YORKTON        CLOUDY    48  39  71 S5        30.11F



USA.gov is the U.S. government's official web portal to all federal, state and local government web resources and services.